BEIDOU-3 M12

Last updated on Wed May 15 2019 03:07:46 GMT+0000 (Coordinated Universal Time)

1 43603U 18067B 19134.36699233 -.00000052 00000-0 00000+0 0 9994 2 43603 54.8594 269.3683 0002657 342.3564 93.7018 1.86231604 4897

Satellite not in orbit

BEIDOU-3 M12